200 serials | teleport pro v1.44 registration code

Date Name Success Rate
2011-09-08 10:56:11 FontLook v3.1 Registration Code 86%
2011-09-08 11:42:43 Nic O'Matic 1.6 Registration Code 50%
2011-09-08 11:42:43 Nic O'Matic v1.6 Registration Code 55%
2011-09-08 12:54:14 TimeSlips 10.5 enterprise - with registration code! 0%
2012-12-13 05:12:00 Registration Code For PDFZilla Giveaway 0%
2012-12-13 05:12:00 Registration code:-826510-16101-266644 71%
2011-09-08 10:42:09 DAS Registration 1.5.2 69%
2011-09-08 10:42:09 DAS Registration For CW5 0%
2011-09-08 10:42:09 DAS Registration v1.5.2 0%
2009-10-17 06:27:02 Lazarus Registration DLL V1.0 59%
2009-10-22 23:48:48 MemoriesonTV Registration 0%
2009-10-22 23:49:42 Registration Wizard 40%
2011-09-08 10:06:47 AnetHelpTool v4.02 Registration 60%
2011-09-08 10:22:13 ByeLines Registration 60%
2011-09-08 10:57:42 Ftgate Registration 63%
2011-09-08 11:15:16 Infodex v2.10 Registration 0%
2011-09-08 11:25:08 Lazarus Registration DLL v1.0 0%
2011-09-08 11:27:46 Mac Opener v3.0 Registration 57%
2011-09-08 11:32:59 mIRC v4.5+ Registration 60%
2011-09-08 11:32:59 mIRC v4.52 Registration 60%
2011-09-08 12:37:02 Quant v2.0 Registration 0%
2011-09-08 12:41:14 Registration Suite 1.0 60%
2011-09-08 12:41:14 Registration Suite v1.0 60%
2011-09-08 12:41:14 Registration Wizard Pro 5.01 46%
2011-09-08 12:41:14 Registration Wizard Pro v5.01 60%
2011-09-08 13:18:59 WinHacker 95 v2.02 Registration 57%
2012-12-13 05:12:00 Registration Key : 526EFEF086E09600449E667EA2DAE8E2E6D642BC 83%
2009-10-22 23:27:21 Ardamax Keylogger 2.9 Registration 56%
2009-10-22 23:48:49 Microsoft Registration Hacker - 39%
2009-10-22 23:49:57 SoudForge ALL (No Registration Requiered) 0%
2009-10-22 23:50:26 Valve's Registration Armor Key-Gen 60%
2011-09-08 10:21:42 Browserola v1.01 Temp. Registration 0%
2011-09-08 11:31:51 Microsoft Registration Hacker 0%
2011-09-08 11:31:51 Microsoft Registration Hacker - 0%
2011-09-08 11:31:51 Microsoft Registration HackerMSREGHACK 0%
2011-09-08 11:32:07 Microstation v5.xx.xx & 95 FULL REGISTRATION 48%
2011-09-08 12:34:57 PolyTrans V1.2E Registration Activator CD-Key 62%
2011-09-08 12:34:57 PolyView v2.9b16 Registration 0%
2011-09-08 12:54:09 Time Registration (German) 1.10 0%
2011-09-08 12:59:30 Super Collapse Registration 100%
2011-09-08 13:23:15 Yipe! II for Windows Registration #154 0%
2012-12-13 08:49:53 Softwarenetz Time Registration v1.10 0%
2012-12-13 08:49:56 Softwarenetz Time Registration v1.14 0%
2012-12-13 15:34:10 Valve's Registration Armor Key-Gen 0%
2009-10-22 23:48:17 Internet Download Manager Registration 50%
2011-09-08 10:25:56 Cheyenne Bitware V4.0 Registration Number 60%
2011-09-08 11:31:51 Microsoft Registration Hacker MSREGHACK 80%
2011-09-08 11:31:51 Microsoft Visual Basic 5 registration cd key 72%
2012-12-12 08:07:32 Download avast 5.0.667 Antivirus registration 0%
2012-12-13 05:12:00 Registration key for x-3gp-video-converter-38540 54%
2012-12-13 13:12:40 Total Image Converter Registration Key 57%
2011-09-08 11:30:16 MediaBlaze 98 v1.01 Win95/NT User: delphic Registration 0%
2009-10-22 23:49:02 Norton Internet Security 2005 Registration Guide 0%
2011-09-08 09:58:40 Acoustica Mixcraft v1.10 Build 15 Registration Info by MaBi 60%
2012-12-12 19:40:26 Microsoft Visual Basic 2008 Express Edition Registration key 20%
2009-10-17 06:33:19 Teleport Pro 1.38 0%
2009-10-17 06:33:19 Teleport Pro V1.30 0%
2009-10-17 06:33:19 Teleport Pro V1.32 0%
2009-10-17 06:33:19 Teleport Pro V1.33 0%
2009-10-17 06:33:19 Teleport Pro V1.34 0%
2009-10-17 06:33:19 Teleport Pro V1.35 0%
2009-10-17 06:33:19 Teleport Pro V1.37 0%
2009-10-17 06:33:19 Teleport Pro V1.38 0%
2009-10-17 06:33:19 Teleport Pro V1.40 0%
2009-10-17 06:33:19 Teleport Pro V1.42 0%
2009-10-17 06:33:19 Teleport Pro V1.43 0%
2009-10-17 06:33:19 Teleport Pro V1.44 0%
2009-10-17 06:33:19 Teleport Pro V1.45 0%
2009-10-17 06:33:19 Teleport Pro V1.46 0%
2009-10-17 06:33:19 Teleport Pro V1.47 0%
2009-10-17 06:33:19 Teleport Pro V1.47 0%
2009-10-17 06:33:19 Teleport Pro V1.48 0%
2009-10-17 06:33:19 Teleport Pro V1.49 0%
2009-10-17 06:33:19 Teleport Pro V1.50 0%
2009-10-17 06:33:19 Teleport Pro V1.51 67%
2009-10-17 06:33:19 Teleport Pro V1.51 0%
2009-10-17 06:33:19 Teleport Pro V1.52 0%
2009-10-17 06:33:19 Teleport Pro V1.52 0%
2009-10-17 06:33:19 Teleport Pro V1.53 0%
2009-10-17 06:33:19 Teleport Pro V1.53 0%
2009-10-17 06:33:19 Teleport Pro V1.54 0%
2009-10-17 06:33:19 Teleport Pro V1.55 0%
2009-10-17 06:33:19 Teleport Pro V1.55 0%
2009-10-17 06:33:19 Teleport Pro V1.56 100%
2009-10-22 23:50:08 Teleport Pro 1.39 0%
2009-10-22 23:50:08 Teleport .Pro.1.38 0%
2009-10-22 23:50:08 Teleport Pro 1.30 0%
2009-10-22 23:50:08 Teleport Pro 1.32 0%
2009-10-22 23:50:08 Teleport Pro 1.33 54%
2009-10-22 23:50:08 Teleport Pro 1.34 0%
2009-10-22 23:50:08 Teleport Pro 1.35 0%
2009-10-22 23:50:08 Teleport Pro 1.37 0%
2009-10-22 23:50:08 Teleport Pro 1.38 0%
2009-10-22 23:50:08 Teleport Pro 1.39 0%
2009-10-22 23:50:08 Teleport Pro 1.40 0%
2009-10-22 23:50:08 Teleport Pro 1.41 0%
2009-10-22 23:50:08 Teleport Pro 1.44 0%
2009-10-22 23:50:08 Teleport Pro 1.49 15%
2009-10-22 23:50:09 Teleport Pro 1.51 47%
2009-10-22 23:50:09 Teleport Pro 1.54 42%
2009-10-22 23:50:09 Teleport Pro 1.56 47%
2009-10-22 23:50:09 Teleport Pro 1.59 56%
2009-10-22 23:50:09 Teleport Pro V1.29 0%
2009-10-22 23:50:09 Teleport Pro V1.3 0%
2009-10-22 23:50:09 Teleport Pro V1.40 0%
2009-10-22 23:50:09 Teleport Pro V1.41 0%
2009-10-22 23:50:09 Teleport Pro V1.43 0%
2009-10-22 23:50:09 Teleport Pro V1.48 0%
2009-10-22 23:50:09 Teleport Pro V1.49 0%
2009-10-22 23:50:09 Teleport Pro V1.50 0%
2009-10-22 23:50:09 Teleport Pro V1.51 0%
2009-10-22 23:50:09 Teleport Pro V1.52 0%
2009-10-22 23:50:09 Teleport Pro V1.53 0%
2009-10-22 23:50:09 Teleport Pro V1.54 0%
2009-10-22 23:50:09 Teleport Pro V1.55 0%
2009-10-22 23:50:09 Teleport Pro V1.56 0%
2009-10-22 23:50:09 Teleport Pro V1.58 0%
2009-10-22 23:50:09 Teleport Pro V1.59 0%
2009-10-22 23:50:09 Teleport Pro V1.60 0%
2011-09-08 12:52:19 Teleport Fax 0%
2011-09-08 12:52:19 Teleport Pro 1.05 0%
2011-09-08 12:52:19 Teleport Pro 1.29.933 0%
2011-09-08 12:52:19 Teleport Pro 1.29.949 0%
2011-09-08 12:52:19 Teleport Pro 1.3 0%
2011-09-08 12:52:19 Teleport Pro 1.30 0%
2011-09-08 12:52:19 Teleport Pro 1.31 0%
2011-09-08 12:52:19 Teleport Pro 1.32 0%
2011-09-08 12:52:19 Teleport Pro 1.33 0%
2011-09-08 12:52:19 Teleport Pro 1.38 0%
2011-09-08 12:52:19 Teleport Pro 1.39 0%
2011-09-08 12:52:19 Teleport Pro 1.55 100%
2011-09-08 12:52:19 Teleport Pro 1.61 100%
2011-09-08 12:52:19 Teleport Pro v1.04.5 0%
2011-09-08 12:52:19 Teleport Pro v1.05 0%
2011-09-08 12:52:19 Teleport Pro v1.2 0%
2011-09-08 12:52:19 Teleport Pro v1.20 0%
2011-09-08 12:52:19 TelePort Pro v1.28 0%
2011-09-08 12:52:19 Teleport Pro v1.28+ 0%
2011-09-08 12:52:19 Teleport Pro v1.29 0%
2011-09-08 12:52:22 Teleport Pro v1.29.933 0%
2011-09-08 12:52:22 Teleport Pro v1.29.949 0%
2011-09-08 12:52:22 Teleport Pro v1.2X 0%
2011-09-08 12:52:22 Teleport pro v1.3 0%
2011-09-08 12:52:22 Teleport Pro v1.30 0%
2011-09-08 12:52:22 Teleport Pro v1.32 0%
2011-09-08 12:52:22 Teleport Pro v1.33 0%
2011-09-08 12:52:22 Teleport Pro v1.34 0%
2011-09-08 12:52:22 Teleport Pro v1.37 0%
2011-09-08 12:52:22 TelePort Pro v1.x 0%
2011-09-08 12:52:22 Teleport v1.29 Pro 0%
2012-12-13 12:02:53 Teleport Pro 1.62 0%
2012-12-13 12:03:52 Teleport Pro v1.63 0%
2012-12-13 12:03:55 Teleport Pro v1.64 0%
2012-12-13 12:03:58 Teleport Pro v1.65 45%
2012-12-13 12:04:01 Teleport Pro v1.66 0%
2012-12-13 12:04:04 Teleport Pro v1.67 0%
2009-10-17 06:33:19 Teleport Pro V1.29.2018 0%
2009-10-17 06:33:19 Teleport Pro V1.29.2020 0%
2009-10-17 06:33:19 Teleport Pro V1.29.2074 80%
2009-10-17 06:33:19 Teleport Pro V1.29.2079 0%
2009-10-17 06:33:19 Teleport Pro V1.29.2081 0%
2009-10-17 06:33:19 Teleport Pro V1.29.2091 0%
2009-10-17 06:33:19 Teleport Pro V1.39UCT 0%
2009-10-17 06:33:19 Teleport Pro V1.40UCT 0%
2009-10-22 23:50:08 Teleport Pro 1.29.2091 0%
2009-10-22 23:50:08 Teleport Pro .v.129.2091 0%
2009-10-22 23:50:08 Teleport Pro 1 29 2020 0%
2009-10-22 23:50:08 Teleport Pro 1.29.1643 0%
2009-10-22 23:50:08 Teleport Pro 1.29.1932 0%
2009-10-22 23:50:08 Teleport Pro 1.29.1952 0%
2009-10-22 23:50:08 Teleport Pro 1.29.1972 0%
2009-10-22 23:50:08 Teleport Pro 1.29.1979 0%
2009-10-22 23:50:08 Teleport Pro 1.29.1995 0%
2009-10-22 23:50:08 Teleport Pro 1.29.2003 0%
2009-10-22 23:50:08 Teleport Pro 1.29.2012 73%
2009-10-22 23:50:08 Teleport Pro 1.29.2041 0%
2009-10-22 23:50:08 Teleport Pro 1.29.2050 100%
2009-10-22 23:50:08 Teleport Pro 1.29.2052 0%
2009-10-22 23:50:08 Teleport Pro 1.29.2074 70%
2009-10-22 23:50:08 Teleport Pro 1.29.2079 0%
2009-10-22 23:50:08 Teleport Pro 1.29.2081 0%
2009-10-22 23:50:08 Teleport Pro 1.29.2091 0%
2009-10-22 23:50:09 Teleport Pro Installer 0%
2009-10-22 23:50:09 Teleport Pro V1.29 1967 0%
2009-10-22 23:50:09 Teleport Pro V1.29.1952 0%
2009-10-22 23:50:09 Teleport Pro V1.42 Keymaker 0%
2009-10-22 23:50:09 Teleport Pro Version 1.44 0%
2011-09-08 12:52:19 Teleport Pro 1 29 2020 0%
2011-09-08 12:52:19 Teleport Pro 1.28 b254 0%
2011-09-08 12:52:19 Teleport Pro 1.29 1530 0%
2011-09-08 12:52:19 TelePort Pro 1.29 1932 0%
2011-09-08 12:52:19 Teleport Pro 1.29 b662 0%
2011-09-08 12:52:19 Teleport Pro 1.29 Build 672 0%
2011-09-08 12:52:19 Teleport Pro 1.29 Build 772 0%
2011-09-08 12:52:19 Teleport Pro 1.29 Build 856 0%
2011-09-08 12:52:19 Teleport Pro 1.29 Build 979 0%
2011-09-08 12:52:19 Teleport Pro 1.29.1025 0%
2011-09-08 12:52:19 Teleport Pro 1.29.1422 41%
2011-09-08 12:52:19 Teleport Pro 1.29.1643 0%
2011-09-08 12:52:19 Teleport Pro 1.29.1718 0%